• In France
  • List of Countries
  • For 7 days
  • Water Temperature
  • Satellite Maps
  • Weather Map
  • Weather Widgets
  • user-avatar
    Login

    Hourly Weather Albena

    Today, 17 January, Wednesday

    Time Temperature Precipitation Wind Pressure Humidity
    00:00 -1°C° 0 mm 4 mps 742 mmHg 94%
    01:00 -1°C° 0 mm 4 mps 741 mmHg 94%
    02:00 -1°C° 0 mm 4 mps 740 mmHg 93%
    03:00 -1°C° 0 mm 4 mps 740 mmHg 92%
    04:00 -1°C° 0 mm 4 mps 740 mmHg 90%
    05:00 -1°C° 0 mm 4 mps 739 mmHg 89%
    06:00 -1°C° 0 mm 4 mps 739 mmHg 88%
    07:00 -1°C° 0 mm 4 mps 739 mmHg 87%
    08:00 0°C° 0 mm 4 mps 738 mmHg 86%
    09:00 +1°C° 0 mm 4 mps 738 mmHg 87%
    10:00 +3°C° 0 mm 4 mps 738 mmHg 88%
    11:00 +4°C° 0 mm 4 mps 737 mmHg 89%
    12:00 +5°C° 0 mm 4 mps 737 mmHg 87%
    13:00 +5°C° 0 mm 5 mps 736 mmHg 85%
    14:00 +6°C° 0 mm 5 mps 735 mmHg 83%
    15:00 +5°C° 0 mm 6 mps 734 mmHg 85%
    16:00 +5°C° 0 mm 6 mps 733 mmHg 86%
    17:00 +4°C° 0 mm 6 mps 732 mmHg 87%
    18:00 +5°C° 0.1 mm 7 mps 731 mmHg 87%
    19:00 +5°C° 0.1 mm 8 mps 730 mmHg 87%
    20:00 +6°C° 0.1 mm 9 mps 729 mmHg 88%
    21:00 +6°C° 1.7 mm 9 mps 728 mmHg 89%
    22:00 +6°C° 1.7 mm 9 mps 727 mmHg 91%
    23:00 +6°C° 1.7 mm 9 mps 726 mmHg 92%

    Tomorrow, 18 January, Thursday

    Time Temperature Precipitation Wind Pressure Humidity
    00:00 +5°C° 0.9 mm 10 mps 725 mmHg 89%
    01:00 +2°C° 0.9 mm 11 mps 725 mmHg 86%
    02:00 +1°C° 0.9 mm 11 mps 725 mmHg 83%
    03:00 +1°C° 0.1 mm 11 mps 725 mmHg 83%
    04:00 -1°C° 0.1 mm 12 mps 726 mmHg 82%
    05:00 -1°C° 0.1 mm 12 mps 726 mmHg 82%
    06:00 -1°C° 0.1 mm 12 mps 727 mmHg 81%
    07:00 -1°C° 0.1 mm 12 mps 728 mmHg 79%
    08:00 -1°C° 0.1 mm 13 mps 729 mmHg 78%
    09:00 -1°C° 0 mm 13 mps 731 mmHg 75%
    10:00 -1°C° 0 mm 13 mps 732 mmHg 71%
    11:00 -1°C° 0 mm 13 mps 733 mmHg 68%
    12:00 0°C° 0 mm 13 mps 734 mmHg 65%
    13:00 0°C° 0 mm 13 mps 734 mmHg 61%
    14:00 +1°C° 0 mm 13 mps 735 mmHg 58%
    15:00 0°C° 0 mm 13 mps 736 mmHg 59%
    16:00 0°C° 0 mm 12 mps 737 mmHg 60%
    17:00 -1°C° 0 mm 12 mps 738 mmHg 61%
    18:00 -1°C° 0 mm 12 mps 739 mmHg 62%
    19:00 -2°C° 0 mm 12 mps 740 mmHg 63%
    20:00 -2°C° 0 mm 11 mps 740 mmHg 65%
    21:00 -2°C° 0 mm 11 mps 741 mmHg 65%
    22:00 -3°C° 0 mm 11 mps 741 mmHg 66%
    23:00 -3°C° 0 mm 10 mps 742 mmHg 67%

    Day after tomorrow, 19 January, Friday

    Time Temperature Precipitation Wind Pressure Humidity
    00:00 -3°C° 0 mm 9 mps 742 mmHg 69%
    01:00 -4°C° 0 mm 8 mps 742 mmHg 70%
    02:00 -4°C° 0 mm 8 mps 742 mmHg 72%
    03:00 -3°C° 0 mm 7 mps 742 mmHg 72%
    04:00 -3°C° 0 mm 6 mps 742 mmHg 72%
    05:00 -3°C° 0 mm 6 mps 742 mmHg 72%
    06:00 -3°C° 0 mm 6 mps 742 mmHg 70%
    07:00 -2°C° 0 mm 5 mps 742 mmHg 68%
    08:00 -1°C° 0 mm 5 mps 743 mmHg 66%
    09:00 0°C° 0 mm 5 mps 743 mmHg 60%
    10:00 +2°C° 0 mm 5 mps 743 mmHg 55%
    11:00 +5°C° 0 mm 5 mps 743 mmHg 49%
    12:00 +6°C° 0 mm 5 mps 743 mmHg 48%
    13:00 +7°C° 0 mm 5 mps 743 mmHg 47%
    14:00 +8°C° 0 mm 5 mps 743 mmHg 46%
    15:00 +7°C° 0 mm 4 mps 743 mmHg 51%
    16:00 +6°C° 0 mm 4 mps 743 mmHg 57%
    17:00 +5°C° 0 mm 4 mps 743 mmHg 63%
    18:00 +5°C° 0 mm 4 mps 743 mmHg 63%
    19:00 +4°C° 0 mm 3 mps 744 mmHg 64%
    20:00 +4°C° 0 mm 3 mps 744 mmHg 64%
    21:00 +4°C° 0 mm 3 mps 744 mmHg 66%
    22:00 +4°C° 0 mm 3 mps 744 mmHg 69%
    23:00 +3°C° 0 mm 3 mps 744 mmHg 71%

    20 January, Saturday

    Time Temperature Precipitation Wind Pressure Humidity
    00:00 +3°C° 0 mm 4 mps 743 mmHg 76%
    01:00 +3°C° 0 mm 4 mps 743 mmHg 81%
    02:00 +1°C° 0 mm 4 mps 743 mmHg 86%
    03:00 +1°C° 0 mm 4 mps 743 mmHg 86%
    04:00 +1°C° 0 mm 4 mps 742 mmHg 86%
    05:00 +1°C° 0 mm 4 mps 742 mmHg 86%
    06:00 +1°C° 0 mm 4 mps 742 mmHg 83%
    07:00 +1°C° 0 mm 4 mps 742 mmHg 80%
    08:00 +1°C° 0 mm 4 mps 742 mmHg 77%
    09:00 +3°C° 0 mm 5 mps 741 mmHg 75%
    10:00 +5°C° 0 mm 5 mps 741 mmHg 73%
    11:00 +7°C° 0 mm 6 mps 741 mmHg 71%
    12:00 +8°C° 0 mm 6 mps 741 mmHg 72%
    13:00 +9°C° 0 mm 7 mps 740 mmHg 73%
    14:00 +10°C° 0 mm 7 mps 739 mmHg 73%
    15:00 +9°C° 0 mm 6 mps 739 mmHg 76%
    16:00 +8°C° 0 mm 6 mps 739 mmHg 78%
    17:00 +7°C° 0 mm 5 mps 739 mmHg 80%
    18:00 +7°C° 0 mm 5 mps 739 mmHg 80%
    19:00 +6°C° 0 mm 4 mps 739 mmHg 81%
    20:00 +5°C° 0 mm 4 mps 739 mmHg 81%
    21:00 +4°C° 0.2 mm 4 mps 739 mmHg 81%
    22:00 +3°C° 0.2 mm 5 mps 739 mmHg 82%
    23:00 +2°C° 0.2 mm 6 mps 739 mmHg 82%

    21 January, Sunday

    Time Temperature Precipitation Wind Pressure Humidity
    00:00 +2°C° 0.6 mm 6 mps 740 mmHg 83%
    01:00 +2°C° 0.6 mm 6 mps 740 mmHg 84%
    02:00 +2°C° 0.6 mm 5 mps 740 mmHg 84%
    03:00 +1°C° 0 mm 5 mps 741 mmHg 84%
    04:00 +1°C° 0 mm 5 mps 741 mmHg 84%
    05:00 0°C° 0 mm 5 mps 742 mmHg 84%
    06:00 0°C° 0 mm 4 mps 742 mmHg 84%
    07:00 0°C° 0 mm 4 mps 743 mmHg 83%
    08:00 0°C° 0 mm 4 mps 744 mmHg 83%
    09:00 0°C° 0 mm 4 mps 744 mmHg 80%
    10:00 +1°C° 0 mm 4 mps 744 mmHg 78%
    11:00 +1°C° 0 mm 4 mps 745 mmHg 76%
    12:00 +3°C° 0 mm 4 mps 745 mmHg 74%
    13:00 +3°C° 0 mm 4 mps 745 mmHg 73%
    14:00 +3°C° 0 mm 4 mps 745 mmHg 71%
    15:00 +3°C° 0.1 mm 4 mps 745 mmHg 73%
    16:00 +1°C° 0.1 mm 5 mps 745 mmHg 75%
    17:00 +1°C° 0.1 mm 5 mps 745 mmHg 76%
    18:00 +1°C° 0.1 mm 5 mps 745 mmHg 77%
    19:00 -1°C° 0.1 mm 6 mps 746 mmHg 79%
    20:00 -1°C° 0.1 mm 6 mps 746 mmHg 80%
    21:00 -1°C° 0.1 mm 6 mps 746 mmHg 81%
    22:00 -1°C° 0.1 mm 6 mps 746 mmHg 81%
    23:00 -1°C° 0.1 mm 6 mps 746 mmHg 82%

    22 January, Monday

    Time Temperature Precipitation Wind Pressure Humidity
    00:00 -1°C° 0.1 mm 7 mps 746 mmHg 81%
    01:00 -1°C° 0.1 mm 7 mps 746 mmHg 80%
    02:00 -2°C° 0.1 mm 8 mps 746 mmHg 79%
    03:00 -2°C° 0.1 mm 8 mps 746 mmHg 78%
    04:00 -3°C° 0.1 mm 9 mps 746 mmHg 77%
    05:00 -3°C° 0.1 mm 9 mps 746 mmHg 76%
    06:00 -3°C° 0.1 mm 9 mps 747 mmHg 76%
    07:00 -4°C° 0.1 mm 9 mps 747 mmHg 76%
    08:00 -4°C° 0.1 mm 9 mps 747 mmHg 76%
    09:00 -3°C° 0 mm 9 mps 748 mmHg 74%
    10:00 -3°C° 0 mm 9 mps 748 mmHg 73%
    11:00 -3°C° 0 mm 9 mps 748 mmHg 72%
    12:00 -3°C° 0 mm 9 mps 748 mmHg 70%
    13:00 -1°C° 0 mm 9 mps 748 mmHg 69%
    14:00 -1°C° 0 mm 9 mps 748 mmHg 68%
    15:00 -2°C° 0 mm 8 mps 748 mmHg 70%
    16:00 -2°C° 0 mm 8 mps 749 mmHg 73%
    17:00 -4°C° 0 mm 8 mps 749 mmHg 75%
    18:00 -4°C° 0 mm 8 mps 750 mmHg 76%
    19:00 -4°C° 0 mm 7 mps 750 mmHg 78%
    20:00 -4°C° 0 mm 7 mps 751 mmHg 79%
    21:00 -6°C° 0 mm 7 mps 751 mmHg 79%
    22:00 -6°C° 0 mm 7 mps 751 mmHg 80%
    23:00 -5°C° 0 mm 6 mps 752 mmHg 80%
    Show more